Wetbulb
53.12 52.79 52.41 52.89 52.83 53.13 52.48 52.47 52.89 52.19 52.58 52.28 52.21 51.89 51.66 51.34 51.29 51.35 51.44 51.61 52.08 52.32 51.97 51.67 51.72 51.90 46.76 36.54 35.78 45.96 50.76 47.49 44.29 43.38 40.83 42.87 44.61 42.92 39.97 40.94 42.09 41.38 43.35 44.03 45.45 45.31 43.97
53.02 52.41 52.18 52.67 52.83 53.05 52.51 52.70 51.85 51.67 51.65 51.89 51.83 51.42 50.92 50.77 50.78 50.80 50.93 51.19 51.58 50.90 50.88 50.38 50.77 50.11 40.55 30.06 42.38 44.84 43.37 41.41 41.25 39.27 38.59 39.33 40.74 41.16 40.08 40.97 40.36 41.85 41.92 42.03 44.24 43.93 44.04
52.06 52.32 52.37 53.07 52.54 52.54 52.39 51.61 51.03 51.08 51.52 51.35 51.21 50.72 50.40 50.17 50.32 50.46 50.76 50.82 49.84 49.77 49.70 49.48 48.73 45.82 41.52 36.93 44.83 43.08 41.08 39.69 40.72 38.70 37.14 40.66 41.68 39.11 39.10 36.34 40.76 40.12 37.25 39.24 40.85 43.48 42.18
51.60 51.96 52.08 52.05 52.73 51.32 51.34 50.84 50.80 50.85 50.71 50.79 50.35 49.96 49.90 49.93 49.95 50.00 50.30 49.10 48.96 48.39 48.83 48.19 48.88 42.08 35.70 46.15 44.03 41.14 40.69 38.98 40.12 41.69 40.67 41.47 41.88 39.17 37.39 39.54 37.94 35.20 36.94 31.79 37.11 38.91 42.95
50.78 51.03 51.51 52.36 51.53 50.99 50.53 50.53 50.46 50.58 50.63 50.11 49.84 49.65 49.46 49.50 49.46 49.59 48.64 47.59 47.54 46.31 47.10 46.11 36.90 38.44 32.25 43.47 37.87 39.25 38.80 36.41 38.06 40.77 39.22 41.34 39.45 35.00 35.25 31.23 29.43 33.52 27.15 30.03 33.49 39.79 39.23
50.71 51.73 51.78 50.82 50.40 50.20 50.41 50.20 49.91 49.79 49.90 49.58 49.34 49.03 48.95 48.90 49.19 48.59 46.89 46.46 45.00 41.50 40.67 40.17 38.58 30.59 33.90 31.65 36.34 38.24 38.18 38.78 37.12 36.19 33.05 32.13 30.43 27.01 27.04 27.48 19.57 22.02 24.26 29.00 30.09 36.45 39.10
51.74 50.54 50.21 49.80 49.69 49.75 49.62 49.42 49.35 49.56 49.37 49.06 48.63 48.23 48.27 48.56 48.67 47.54 41.38 35.71 30.21 29.08 31.40 27.90 28.85 29.17 32.26 36.53 38.45 35.15 37.93 34.60 33.64 28.50 21.54 26.14 22.09 16.54 20.65 24.44 27.74 25.44 22.66 22.57 28.02 33.49 34.21
49.57 49.55 49.42 48.99 49.42 49.04 49.16 49.15 49.40 49.32 48.96 48.51 48.20 47.99 48.01 48.33 47.92 46.04 38.12 32.43 32.39 32.10 25.83 32.80 33.01 32.78 35.12 35.67 29.92 32.17 36.55 28.22 27.02 21.24 23.39 20.15 13.55 21.81 25.69 24.42 22.60 21.22 19.93 20.93 25.88 31.05 32.00
49.22 48.87 48.98 49.45 48.90 48.48 48.89 48.87 49.07 48.85 48.51 48.34 48.10 47.67 47.66 47.84 46.71 39.32 35.01 34.65 38.72 35.81 25.36 28.44 32.92 34.13 31.90 32.70 27.98 28.43 32.21 28.92 22.81 21.02 20.03 14.22 18.64 24.55 22.56 19.57 16.41 17.05 19.97 19.92 21.07 26.26 29.11
48.25 48.11 48.26 48.62 48.26 48.61 48.67 48.09 48.51 48.47 48.14 47.83 47.72 47.43 47.32 47.21 37.01 35.83 32.11 38.17 38.02 35.52 18.92 23.03 26.39 29.46 31.60 31.24 25.52 33.29 33.94 28.69 23.43 17.21 21.31 18.17 23.29 21.73 19.57 18.00 19.29 12.76 22.72 22.35 20.90 20.37 16.92
47.69 47.61 47.97 48.04 48.56 48.69 47.93 48.10 48.04 48.04 47.92 47.51 47.31 47.01 47.07 45.46 34.99 32.56 36.02 38.41 36.80 31.44 -0.04 23.67 26.04 35.26 31.81 26.27 26.53 27.42 32.83 28.06 20.48 19.91 18.18 16.00 18.84 18.62 17.41 18.94 22.40 17.98 22.45 19.83 22.22 19.22 20.42
47.19 47.38 47.34 48.07 48.57 47.64 47.55 47.43 47.51 47.80 47.43 47.18 47.00 46.62 46.01 39.51 34.88 35.99 37.34 36.11 31.61 12.92 -2.50 19.88 25.33 23.95 23.91 25.97 25.72 27.61 26.73 27.77 28.18 23.02 22.39 18.62 24.58 21.31 19.99 23.93 23.76 24.01 20.80 19.74 23.47 21.23 12.02
46.59 46.73 48.29 48.15 47.26 46.86 46.87 47.38 47.70 47.27 47.16 46.85 46.65 46.06 41.70 39.87 32.84 38.35 35.71 28.51 12.44 3.79 21.86 17.97 19.37 23.13 22.11 21.35 22.16 22.64 21.18 14.00 10.64 9.68 10.36 16.59 17.92 21.94 25.74 18.34 22.81 22.24 15.52 3.69 8.96 9.79 8.19
46.32 47.23 47.16 46.78 46.48 46.46 47.18 46.96 46.82 46.94 46.77 46.36 45.97 42.61 39.56 39.32 37.40 35.44 28.75 19.11 5.26 16.32 16.43 23.36 22.05 21.70 17.91 20.67 20.16 20.40 18.43 11.01 14.79 10.11 11.65 8.18 5.76 17.78 22.64 18.14 17.14 17.18 16.03 6.35 5.70 8.12 11.55
46.50 46.65 46.38 46.06 46.05 46.92 46.80 46.73 47.07 46.71 46.30 46.00 43.51 33.12 32.50 36.55 37.16 31.33 22.16 8.40 10.50 15.79 20.56 19.54 20.19 14.70 14.96 19.58 17.74 15.24 12.12 5.25 7.90 8.88 8.45 6.55 8.85 20.16 22.72 23.82 22.67 18.87 15.84 20.56 11.35 16.00 13.95
46.16 45.64 45.28 45.46 46.68 46.08 46.41 46.72 46.77 46.07 45.93 45.43 31.52 29.20 29.93 36.00 33.53 27.48 17.01 16.90 18.00 23.34 23.52 21.98 11.37 15.78 10.41 14.15 13.08 12.90 10.15 8.39 9.39 12.88 14.87 12.03 5.63 18.26 22.05 23.86 22.78 18.97 22.15 10.33 16.80 2.37 9.48
45.34 44.98 45.12 45.76 45.46 46.46 46.12 46.16 45.91 45.82 45.72 43.97 29.05 24.09 31.16 34.49 30.83 22.94 10.23 13.21 20.36 25.25 24.66 20.07 16.09 11.78 8.61 9.93 14.55 9.34 7.34 13.73 15.32 18.79 16.61 11.69 8.60 13.34 19.59 15.45 14.16 15.96 14.33 15.65 16.08 12.67 11.43
44.95 44.64 45.23 45.06 45.77 45.44 45.93 45.42 44.94 45.15 44.91 37.09 26.66 18.89 31.81 31.59 20.16 19.38 14.58 20.92 26.59 23.76 24.47 22.57 21.01 12.54 10.47 16.02 13.08 12.44 10.94 15.43 22.04 20.77 14.14 16.56 14.71 9.28 12.14 20.70 22.85 19.94 17.18 15.99 10.42 9.02 12.65
44.54 44.68 44.46 44.86 45.02 45.62 44.85 44.39 44.46 44.95 43.68 31.60 20.75 24.39 31.83 28.81 12.49 14.90 19.49 21.50 23.78 22.77 22.70 21.99 19.70 21.80 18.06 16.63 13.20 14.99 16.45 23.08 23.19 20.84 12.35 18.82 10.72 6.60 8.42 15.11 20.54 14.29 18.50 17.70 18.54 16.27 12.30
44.65 43.98 44.28 44.44 45.08 44.88 44.10 43.92 44.09 44.73 43.69 31.40 21.08 14.64 23.47 23.83 22.45 10.80 8.70 17.81 19.46 25.22 23.16 23.74 21.54 21.91 19.09 16.14 17.68 13.75 15.53 21.33 23.27 22.23 28.54 23.33 14.06 10.03 5.48 9.65 15.73 14.12 15.93 16.33 14.74 12.98 16.49
44.23 43.69 44.03 44.04 44.36 44.16 43.91 43.75 43.78 44.09 42.86 30.58 21.24 17.15 22.62 13.47 18.86 18.06 19.35 13.92 17.58 18.67 22.76 22.38 19.65 20.54 15.25 10.71 13.81 13.13 17.24 18.20 20.90 23.65 21.35 17.14 9.16 15.11 16.22 17.06 18.79 17.59 14.32 14.92 11.30 13.89 10.72
43.93 43.78 44.34 43.76 44.25 43.95 43.62 43.26 43.31 43.46 41.15 29.40 17.61 16.76 21.15 17.70 20.18 16.25 17.85 13.99 18.22 20.01 19.71 18.99 18.28 20.12 19.16 8.94 13.50 13.92 16.73 16.06 14.55 18.40 17.58 19.54 12.23 15.66 12.98 18.20 19.02 13.90 14.41 16.80 14.46 13.16 13.30
43.93 44.04 43.50 43.53 43.67 43.61 43.15 43.09 43.11 43.04 39.15 30.31 30.94 29.31 27.25 19.58 16.80 12.73 16.65 21.52 19.02 22.38 21.75 23.88 21.23 19.15 17.18 19.65 21.39 22.02 21.33 19.58 18.61 17.03 16.00 16.36 15.99 13.93 9.82 16.48 16.58 10.72 12.13 14.85 14.71 15.01 13.82
44.04 43.82 43.20 43.41 43.41 43.08 42.98 43.00 43.00 42.54 39.76 36.65 35.52 34.18 26.06 14.94 18.33 20.56 21.59 22.48 20.91 21.83 19.25 22.74 22.43 17.32 22.09 26.13 23.54 20.61 17.87 18.92 17.43 19.12 20.38 15.46 15.05 16.24 10.88 14.21 3.50 14.74 19.11 18.11 16.30 15.70 16.34
44.15 43.44 43.24 43.15 42.98 42.82 42.85 42.72 42.44 42.25 42.67 37.10 36.70 34.18 27.40 16.98 20.96 20.89 20.66 20.33 18.90 19.98 20.09 21.43 22.64 23.60 24.78 20.83 13.49 11.25 11.84 14.20 16.42 17.92 18.02 17.78 16.18 11.99 9.83 9.44 15.90 15.89 14.27 14.32 12.92 14.31 17.74
44.15 43.42 43.29 43.03 42.61 42.63 42.50 42.25 42.34 42.67 42.39 35.86 32.60 33.32 32.21 21.87 14.56 23.53 17.26 16.36 11.89 7.99 14.10 20.67 24.29 25.02 22.89 19.80 12.92 1.86 2.77 8.48 8.93 12.67 19.50 18.96 17.13 13.41 12.29 8.41 5.14 9.60 17.04 20.28 21.60 14.41 18.55
43.93 43.42 43.40 42.58 42.66 42.46 42.24 42.00 42.31 42.71 42.35 38.08 32.95 33.93 25.29 19.52 21.23 18.86 15.08 14.26 21.41 19.05 15.35 13.51 16.45 19.34 21.29 14.26 10.58 6.80 7.17 11.79 5.50 7.41 8.48 7.79 5.10 7.81 9.86 9.34 10.84 14.64 18.62 21.83 7.54 9.01 19.70
43.63 43.30 43.17 42.68 42.48 42.44 42.31 42.02 42.31 42.40 42.01 36.79 32.15 34.08 27.11 12.52 22.00 25.27 26.51 18.79 20.75 18.59 7.55 14.33 14.00 14.73 11.70 6.85 8.15 3.78 2.31 2.86 3.19 10.42 10.82 0.69 2.56 5.21 7.76 2.05 3.71 17.54 17.78 11.17 16.57 20.26 20.96
43.47 43.35 42.79 42.70 42.44 42.42 42.08 42.05 42.36 42.12 41.89 38.94 31.13 33.40 33.38 24.67 22.75 27.64 29.33 29.89 27.83 27.78 26.32 16.43 15.61 17.72 20.74 10.55 9.83 13.59 9.44 3.37 -0.15 0.76 12.36 1.11 1.71 1.88 9.78 8.40 16.53 18.40 17.02 20.15 20.62 19.91 21.12
MSLP
1025.62 1025.50 1025.37 1025.12 1024.99 1024.83 1024.65 1024.36 1024.22 1023.79 1023.38 1023.00 1022.52 1022.09 1021.60 1021.15 1020.56 1019.93 1019.30 1018.58 1017.78 1017.07 1016.52 1016.11 1015.80 1015.60 1015.77 1016.34 1015.82 1014.73 1014.12 1013.55 1012.98 1012.71 1012.76 1012.69 1012.41 1012.37 1011.38 1010.77 1010.52 1009.40 1007.20 1007.95 1007.68 1007.61 1007.43
1025.84 1025.76 1025.52 1025.35 1025.10 1024.86 1024.74 1024.61 1024.25 1023.90 1023.51 1022.99 1022.54 1022.13 1021.65 1021.12 1020.44 1019.80 1019.07 1018.23 1017.43 1016.62 1015.75 1015.47 1015.21 1015.35 1015.76 1016.20 1015.39 1014.73 1014.43 1013.84 1013.40 1013.15 1013.01 1012.81 1012.50 1012.34 1011.66 1010.56 1010.03 1008.52 1008.34 1007.84 1007.83 1007.23 1007.43
1025.98 1025.76 1025.65 1025.45 1025.23 1025.10 1024.92 1024.63 1024.44 1024.04 1023.51 1023.10 1022.63 1022.22 1021.70 1021.08 1020.42 1019.60 1018.82 1017.91 1017.17 1016.58 1015.91 1015.41 1015.16 1015.17 1015.37 1015.56 1014.98 1014.70 1014.21 1014.05 1013.78 1013.59 1013.19 1012.56 1012.36 1012.25 1011.65 1010.84 1010.36 1009.51 1008.73 1008.35 1006.89 1006.94 1006.78
1026.11 1025.98 1025.85 1025.60 1025.42 1025.25 1024.96 1024.83 1024.49 1024.04 1023.68 1023.25 1022.88 1022.43 1021.87 1021.11 1020.27 1019.48 1018.54 1017.57 1016.73 1016.53 1015.99 1014.84 1015.10 1015.58 1015.51 1015.09 1015.07 1014.49 1014.31 1014.16 1013.71 1013.37 1013.19 1012.36 1011.96 1011.85 1011.52 1011.49 1010.67 1010.21 1009.14 1007.26 1005.56 1006.67 1006.67
1026.39 1026.19 1025.94 1025.79 1025.61 1025.43 1025.20 1024.86 1024.51 1024.10 1023.68 1023.34 1022.87 1022.35 1021.76 1021.07 1020.28 1019.46 1018.55 1017.41 1016.68 1016.23 1015.72 1015.22 1015.49 1015.82 1015.90 1015.24 1015.11 1015.05 1014.79 1014.52 1014.04 1013.51 1012.82 1012.27 1012.23 1011.95 1011.63 1011.45 1011.15 1010.03 1008.39 1007.44 1006.25 1005.82 1006.17
1026.47 1026.28 1026.15 1026.02 1025.82 1025.60 1025.23 1024.98 1024.68 1024.26 1023.77 1023.25 1022.75 1022.21 1021.66 1020.97 1020.24 1019.45 1018.91 1017.65 1016.87 1016.68 1015.89 1015.56 1016.14 1017.02 1016.67 1016.58 1016.05 1015.68 1015.11 1014.61 1014.31 1013.92 1013.47 1013.35 1013.21 1012.99 1012.57 1012.32 1010.54 1009.87 1009.77 1008.10 1006.56 1006.09 1005.67
1026.53 1026.43 1026.35 1026.23 1026.03 1025.74 1025.45 1025.17 1024.80 1024.33 1023.92 1023.43 1022.89 1022.25 1021.69 1020.92 1020.27 1019.75 1019.38 1018.63 1018.78 1018.33 1018.55 1019.33 1019.00 1018.92 1018.04 1017.17 1016.25 1016.03 1015.46 1014.97 1014.85 1014.91 1014.99 1014.63 1014.45 1014.17 1013.56 1012.99 1012.05 1011.50 1010.81 1009.29 1007.79 1007.35 1006.79
1026.62 1026.55 1026.53 1026.43 1026.16 1025.92 1025.63 1025.29 1024.85 1024.38 1023.95 1023.50 1023.03 1022.28 1021.57 1020.87 1020.36 1020.05 1020.24 1020.51 1021.49 1022.07 1021.03 1019.41 1019.17 1019.15 1018.22 1017.67 1016.98 1016.48 1016.09 1016.16 1015.92 1016.00 1015.94 1015.90 1015.21 1014.44 1014.00 1013.61 1013.25 1012.21 1011.21 1010.16 1008.83 1007.74 1007.04
1026.75 1026.77 1026.66 1026.50 1026.30 1026.13 1025.80 1025.42 1024.92 1024.47 1024.10 1023.60 1022.97 1022.25 1021.51 1020.67 1020.34 1020.59 1020.89 1021.24 1021.30 1021.45 1021.62 1020.10 1019.25 1018.86 1018.27 1018.00 1017.53 1017.10 1016.73 1016.52 1016.60 1016.86 1016.84 1016.80 1015.44 1014.79 1014.42 1013.76 1013.20 1012.49 1011.65 1010.83 1010.08 1008.49 1006.99
1026.95 1026.93 1026.78 1026.58 1026.49 1026.18 1025.88 1025.56 1025.05 1024.55 1024.11 1023.63 1022.99 1022.19 1021.54 1020.83 1020.97 1021.20 1020.92 1020.87 1021.00 1021.11 1021.31 1020.80 1019.73 1019.15 1018.86 1018.51 1018.07 1017.27 1016.99 1017.29 1017.18 1017.45 1017.23 1016.78 1015.31 1014.77 1014.08 1013.65 1013.15 1012.27 1011.59 1011.13 1010.57 1009.75 1007.54
1027.09 1027.10 1026.95 1026.78 1026.46 1026.23 1025.97 1025.54 1025.12 1024.61 1024.14 1023.68 1023.03 1022.32 1021.60 1021.19 1021.75 1021.49 1021.19 1020.79 1020.67 1021.06 1022.07 1021.75 1020.50 1019.47 1019.52 1019.50 1018.96 1017.66 1017.34 1017.28 1017.71 1017.71 1017.87 1016.84 1015.64 1014.69 1013.70 1013.20 1013.03 1011.83 1011.73 1011.09 1009.90 1009.16 1008.33
1027.28 1027.23 1027.14 1026.90 1026.65 1026.43 1026.03 1025.56 1025.05 1024.63 1024.16 1023.65 1023.04 1022.40 1021.80 1021.62 1021.80 1021.16 1020.98 1020.70 1020.98 1022.05 1023.25 1022.34 1021.55 1020.63 1020.32 1019.86 1019.24 1018.59 1018.15 1018.10 1018.04 1018.27 1017.55 1016.76 1015.30 1014.53 1013.44 1012.79 1012.66 1011.94 1011.24 1010.29 1009.42 1008.83 1006.53
1027.34 1027.28 1027.27 1027.17 1026.99 1026.74 1026.32 1025.76 1025.13 1024.66 1024.15 1023.62 1023.08 1022.45 1022.11 1021.95 1022.17 1021.02 1020.82 1021.33 1022.65 1024.08 1024.70 1023.57 1022.32 1021.63 1021.18 1020.68 1020.13 1019.77 1019.51 1019.67 1019.90 1019.57 1018.41 1016.54 1015.22 1013.77 1013.01 1012.58 1011.81 1011.77 1011.55 1009.90 1009.26 1007.81 1005.39
1027.44 1027.37 1027.46 1027.40 1027.21 1026.91 1026.47 1025.99 1025.48 1024.87 1024.36 1023.87 1023.13 1022.78 1022.57 1022.28 1021.80 1021.21 1021.26 1022.62 1024.49 1025.73 1025.01 1024.24 1023.27 1022.47 1022.12 1021.67 1021.37 1020.91 1020.80 1020.77 1020.50 1020.88 1019.95 1018.39 1014.91 1014.50 1013.33 1013.31 1012.46 1011.32 1011.10 1010.24 1008.42 1006.26 1004.67
1027.49 1027.47 1027.58 1027.55 1027.35 1026.93 1026.60 1026.20 1025.76 1025.16 1024.58 1024.14 1023.50 1023.57 1023.19 1022.58 1021.97 1021.63 1022.66 1024.30 1026.09 1025.92 1025.38 1024.49 1023.67 1023.25 1023.12 1022.91 1022.94 1022.40 1022.02 1022.12 1021.63 1021.52 1021.29 1019.29 1016.48 1015.14 1013.22 1012.57 1012.32 1011.07 1010.51 1009.97 1008.40 1006.06 1005.27
1027.59 1027.59 1027.61 1027.44 1027.22 1027.03 1026.69 1026.26 1025.82 1025.37 1024.71 1024.17 1024.74 1024.65 1024.01 1023.22 1022.53 1022.98 1024.06 1025.68 1026.22 1025.69 1025.20 1024.80 1024.73 1024.50 1024.27 1023.82 1023.55 1023.34 1022.61 1022.01 1021.62 1021.36 1021.15 1020.24 1017.19 1014.60 1013.12 1012.73 1012.19 1012.05 1011.35 1010.03 1008.35 1006.55 1004.38
1027.56 1027.57 1027.51 1027.39 1027.27 1027.07 1026.90 1026.47 1025.98 1025.50 1024.93 1024.69 1025.25 1025.31 1024.07 1023.33 1023.29 1024.68 1026.18 1026.62 1026.11 1025.35 1025.09 1025.09 1025.15 1025.26 1025.23 1024.84 1024.21 1023.66 1022.98 1021.97 1021.09 1020.68 1020.39 1019.59 1018.77 1015.07 1013.83 1013.40 1012.72 1012.11 1011.70 1011.25 1009.97 1007.73 1004.77
1027.62 1027.62 1027.50 1027.41 1027.30 1027.23 1027.02 1026.68 1026.24 1025.72 1025.16 1025.48 1026.31 1026.24 1024.90 1024.12 1025.11 1026.53 1027.16 1026.85 1025.99 1025.29 1024.91 1024.90 1024.91 1025.38 1025.37 1024.76 1024.16 1023.66 1022.81 1021.92 1020.60 1020.16 1019.27 1018.87 1018.04 1015.95 1014.16 1013.00 1013.09 1012.73 1012.04 1011.26 1009.99 1007.98 1006.22
1027.58 1027.62 1027.55 1027.39 1027.25 1027.18 1027.04 1026.81 1026.44 1025.88 1025.61 1026.37 1027.49 1027.01 1025.57 1025.35 1026.98 1027.91 1027.68 1027.02 1026.34 1025.55 1025.08 1024.87 1024.99 1025.01 1025.01 1024.83 1024.39 1023.08 1021.97 1020.49 1020.09 1019.57 1018.79 1018.56 1017.51 1016.14 1013.81 1013.44 1013.06 1012.85 1012.12 1010.70 1008.54 1008.64 1007.04
1027.33 1027.48 1027.52 1027.45 1027.29 1027.18 1027.08 1026.75 1026.46 1026.23 1026.05 1026.74 1027.89 1027.82 1027.15 1027.42 1028.09 1028.43 1028.68 1027.74 1026.73 1025.66 1025.24 1024.93 1024.84 1024.84 1024.91 1024.33 1023.82 1022.74 1021.80 1020.48 1019.86 1019.10 1018.08 1017.81 1017.64 1017.19 1016.46 1015.27 1014.59 1013.72 1012.79 1011.91 1010.07 1009.33 1008.25
1027.26 1027.39 1027.36 1027.45 1027.28 1027.23 1027.12 1026.89 1026.54 1026.40 1026.40 1027.17 1028.77 1029.30 1028.95 1028.87 1028.63 1028.81 1028.90 1028.19 1027.19 1026.13 1025.51 1024.99 1024.80 1024.95 1025.13 1024.46 1023.25 1022.33 1021.37 1020.75 1019.50 1018.84 1018.42 1018.10 1017.71 1016.52 1015.44 1014.89 1014.66 1014.49 1013.59 1012.99 1011.83 1011.56 1010.91
1027.26 1027.24 1027.26 1027.35 1027.32 1027.19 1027.05 1026.84 1026.60 1026.33 1026.37 1027.49 1028.75 1029.31 1029.47 1029.22 1028.96 1028.89 1028.54 1028.12 1027.23 1026.49 1026.19 1025.30 1025.12 1024.71 1024.72 1024.66 1023.81 1022.59 1022.36 1021.62 1020.85 1019.25 1018.90 1018.38 1017.62 1016.37 1015.00 1014.62 1014.63 1014.75 1014.12 1013.70 1013.08 1012.43 1012.08
1027.15 1027.21 1027.15 1027.16 1027.18 1027.10 1026.95 1026.77 1026.66 1026.53 1026.87 1027.69 1028.27 1028.64 1029.11 1028.91 1029.00 1029.11 1028.37 1027.89 1027.35 1026.82 1025.65 1025.31 1025.12 1024.88 1024.22 1023.52 1022.96 1021.80 1021.57 1021.48 1020.99 1020.68 1019.62 1018.89 1018.03 1016.77 1015.58 1014.69 1014.41 1014.91 1015.34 1014.86 1014.90 1014.47 1014.22
1027.06 1027.10 1027.09 1027.10 1027.09 1027.03 1026.93 1026.82 1026.77 1026.50 1026.65 1027.29 1027.79 1028.33 1028.80 1028.87 1028.86 1028.54 1028.02 1027.80 1027.42 1026.99 1026.61 1025.39 1025.11 1024.86 1023.78 1023.04 1021.99 1021.02 1020.84 1020.65 1020.41 1020.14 1020.03 1019.21 1018.26 1017.32 1016.21 1015.09 1015.37 1016.63 1016.62 1016.06 1015.23 1014.98 1014.37
1026.79 1026.90 1026.86 1026.87 1027.02 1027.07 1026.99 1026.84 1026.80 1026.59 1026.45 1026.94 1027.33 1027.87 1028.41 1028.62 1028.41 1028.00 1027.84 1027.66 1027.24 1026.93 1026.53 1025.73 1024.88 1024.43 1024.14 1023.71 1023.21 1022.55 1021.94 1021.38 1020.69 1020.25 1020.04 1019.76 1018.99 1018.12 1017.29 1016.55 1016.32 1016.06 1016.50 1016.64 1016.94 1016.28 1016.40
1026.50 1026.70 1026.71 1026.66 1026.90 1026.93 1026.95 1026.91 1026.72 1026.53 1026.22 1026.70 1026.96 1027.35 1027.93 1028.66 1028.00 1027.59 1027.85 1027.81 1027.87 1027.33 1026.96 1025.86 1024.91 1024.31 1024.50 1024.53 1024.64 1024.86 1024.47 1023.83 1022.64 1021.41 1020.86 1020.62 1020.10 1019.50 1018.41 1017.83 1018.27 1019.41 1017.47 1015.89 1015.52 1016.07 1016.25
1026.29 1026.50 1026.54 1026.58 1026.68 1026.67 1026.64 1026.67 1026.50 1026.22 1026.11 1026.45 1026.80 1026.92 1027.68 1028.33 1027.53 1027.52 1027.47 1027.48 1027.23 1027.35 1027.40 1026.66 1026.06 1025.39 1025.25 1025.71 1025.81 1026.07 1025.91 1025.21 1024.89 1024.04 1022.98 1022.65 1022.19 1021.61 1020.67 1019.91 1019.80 1020.37 1018.39 1016.17 1016.78 1019.38 1017.51
1026.02 1026.25 1026.31 1026.34 1026.44 1026.44 1026.46 1026.39 1026.21 1025.96 1025.89 1026.38 1026.83 1026.88 1027.34 1027.82 1027.20 1026.91 1026.67 1026.55 1026.70 1027.04 1027.34 1026.80 1026.67 1026.63 1026.41 1026.62 1026.90 1026.79 1027.07 1026.64 1026.59 1025.63 1025.30 1025.59 1025.62 1024.47 1023.16 1022.24 1021.61 1020.75 1020.17 1020.09 1021.35 1019.67 1018.93
1025.78 1026.02 1026.06 1026.07 1026.15 1026.22 1026.26 1026.17 1026.02 1025.86 1025.60 1025.92 1026.83 1026.88 1027.05 1027.79 1027.01 1026.32 1026.02 1025.70 1025.75 1025.79 1026.39 1027.02 1027.61 1027.50 1027.04 1027.18 1027.23 1027.02 1027.11 1027.20 1027.35 1027.22 1026.42 1026.97 1027.33 1027.30 1025.73 1024.11 1023.02 1022.35 1022.15 1022.09 1021.70 1020.82 1019.35
Wind_Speed
8 10 10 12 13 12 14 16 16 17 18 20 20 21 22 23 24 25 26 26 26 26 24 21 18 14 4 4 6 8 22 17 7 12 12 9 6 5 14 6 12 24 25 11 16 20 12
8 9 11 10 10 12 16 16 16 18 19 19 20 21 23 24 25 27 27 27 27 27 24 16 9 7 5 2 4 8 9 8 8 6 6 5 7 8 14 18 22 7 18 29 22 17 7
8 10 11 11 13 15 14 16 18 17 18 20 21 22 24 26 27 28 28 28 27 21 23 9 2 2 2 7 3 7 7 7 6 6 5 6 8 8 8 10 8 13 23 23 25 19 18
8 10 10 12 13 13 15 16 16 19 19 21 23 23 24 25 27 27 26 28 28 19 25 6 8 2 1 3 5 15 9 8 9 5 5 12 10 11 12 9 9 8 10 20 19 25 14
8 9 10 11 13 14 15 15 18 19 20 22 23 24 25 26 26 24 23 28 21 10 19 6 8 1 4 9 15 9 7 7 8 6 9 7 5 6 6 12 14 10 17 17 18 12 9
8 8 11 12 12 14 14 17 18 19 21 23 24 25 26 27 25 21 22 16 14 6 14 2 5 3 7 9 7 8 6 10 4 7 7 6 4 4 4 7 19 22 21 17 16 6 19
7 10 10 10 12 13 14 16 17 19 21 22 24 26 26 26 23 19 12 5 10 10 12 2 8 2 5 9 9 12 8 9 7 5 6 5 3 6 14 13 18 11 10 15 22 20 10
7 8 9 10 10 13 13 15 17 19 21 23 24 25 25 23 18 15 5 7 5 5 7 4 7 5 9 4 5 14 9 6 5 8 7 5 6 8 12 16 18 21 20 17 16 16 17
7 8 9 8 12 12 14 17 18 20 22 23 25 26 23 21 12 6 3 6 1 2 1 8 4 4 10 7 6 15 11 7 3 6 7 3 13 13 15 17 15 16 11 8 13 14 21
6 7 8 9 11 12 14 16 18 20 22 23 25 26 22 20 5 4 4 5 2 1 3 9 8 5 9 12 6 18 5 3 5 3 5 7 9 18 21 17 14 14 12 17 17 12 11
6 6 8 10 10 13 15 16 18 20 22 24 25 24 21 8 4 4 6 8 3 4 5 16 5 6 13 4 7 5 6 4 5 7 4 14 20 21 21 13 12 10 14 17 16 13 12
5 6 7 8 10 13 14 17 18 21 23 24 26 22 14 4 1 5 6 4 4 7 4 7 10 20 14 14 14 7 7 5 4 6 14 15 13 9 8 11 13 18 12 17 13 12 16
4 4 7 10 11 12 14 16 19 21 23 24 26 19 5 2 7 12 5 4 6 9 7 10 16 16 16 13 14 7 10 10 1 7 12 18 11 8 7 17 10 8 12 4 7 9 7
3 5 7 8 10 11 13 17 18 21 23 24 25 10 7 2 9 6 4 7 11 5 4 13 13 17 7 11 11 7 12 5 2 2 8 7 28 13 12 14 10 17 6 3 7 6 10
3 7 6 8 9 11 14 15 18 21 23 24 16 5 4 9 9 4 7 8 3 3 7 9 14 6 4 11 7 6 5 4 5 2 5 7 17 25 15 14 6 6 3 7 5 9 4
5 5 4 5 9 11 12 15 17 20 23 22 2 4 4 12 7 7 7 8 1 2 6 6 3 3 8 8 9 11 4 5 6 3 2 4 21 11 15 12 6 9 4 6 4 4 6
5 3 3 6 8 10 12 14 17 19 22 16 5 4 4 10 5 6 5 2 3 5 4 3 4 5 7 4 9 4 7 10 1 13 4 8 6 13 12 8 12 8 4 3 5 5 4
3 2 5 6 8 10 12 14 15 17 21 8 2 3 5 5 6 2 2 5 6 4 3 5 4 5 5 11 6 6 6 10 10 11 14 3 5 10 19 7 5 7 6 5 4 4 5
3 2 3 5 8 9 10 13 15 16 14 2 2 2 3 5 4 3 5 5 3 4 6 3 4 4 3 7 7 7 8 14 11 12 4 4 3 10 9 2 2 6 12 20 3 2 5
4 2 2 5 6 8 10 11 13 15 14 5 3 4 4 4 2 6 2 4 5 5 6 3 7 6 9 9 4 10 10 10 21 9 18 9 3 4 6 13 13 13 22 24 15 3 4
5 2 2 4 4 8 9 11 12 13 10 5 4 2 2 4 3 2 3 1 6 9 4 3 4 8 8 6 7 3 12 20 12 8 9 2 4 11 16 12 6 13 23 21 27 18 10
5 2 2 3 5 6 7 9 10 10 6 5 3 3 2 3 3 2 2 3 3 6 3 5 5 14 10 5 6 19 18 11 6 10 5 3 5 13 5 7 9 13 25 12 24 27 14
6 2 1 2 4 5 6 7 8 8 7 2 1 2 1 4 0 3 3 3 5 10 7 7 8 11 11 8 11 21 13 9 10 5 5 4 7 5 6 12 11 5 24 18 10 19 18
6 3 1 2 2 4 6 7 8 7 4 2 3 1 1 5 2 4 5 7 8 9 7 10 6 2 7 15 13 6 4 5 5 5 7 9 8 4 6 10 5 4 15 15 12 18 25
7 4 3 2 2 4 6 7 8 7 6 2 3 2 1 4 3 9 3 5 6 6 4 4 6 5 8 7 6 7 6 7 5 3 7 5 4 5 4 4 1 4 24 21 9 3 23
7 5 3 2 2 4 5 7 8 9 7 3 2 3 2 2 5 2 3 2 2 3 6 4 7 5 5 2 3 3 2 4 7 11 6 6 5 2 5 4 7 8 26 27 2 2 26
8 6 5 2 3 4 4 6 8 10 7 3 2 3 4 2 4 5 2 4 3 1 3 5 7 7 4 4 3 2 3 1 5 7 9 7 6 5 6 4 3 15 18 18 12 12 25
7 6 4 3 3 5 5 7 9 8 8 4 2 2 4 3 5 5 4 3 1 0 2 5 5 4 4 5 2 2 1 3 2 4 5 2 5 4 5 5 5 19 5 11 9 13 18
8 6 4 3 4 5 6 8 10 9 9 4 1 1 2 3 6 2 5 6 7 8 2 1 4 1 2 2 1 2 2 1 2 4 3 5 5 3 1 4 9 14 5 6 12 14 14
Wind_Direction
58 43 30 28 23 16 11 12 11 359 358 358 356 351 349 346 342 339 335 332 327 324 321 317 311 301 336 12 279 294 341 338 3 8 13 340 228 221 242 222 222 247 251 256 239 245 255
40 41 26 19 12 15 8 13 6 0 358 354 355 353 347 345 341 339 335 330 330 333 329 318 333 76 97 330 245 291 321 332 341 6 331 347 312 298 297 258 245 271 263 255 257 256 254
38 29 26 20 15 23 12 9 6 357 357 356 352 352 349 345 343 339 336 332 331 333 344 334 331 295 199 248 274 310 342 327 312 326 306 279 279 245 326 313 352 296 272 276 259 253 232
36 38 22 23 23 15 9 9 358 2 357 356 354 351 348 345 342 341 339 330 329 334 334 306 248 49 264 324 331 353 351 330 327 312 281 264 273 252 230 249 288 282 278 254 257 245 252
36 32 17 32 20 12 10 4 5 358 359 356 353 351 347 344 344 343 341 328 338 331 349 20 51 62 15 321 356 336 354 308 305 300 303 325 306 236 269 261 269 214 257 255 268 202 192
41 31 42 22 19 14 8 9 3 357 357 354 352 350 347 343 344 349 346 338 348 22 342 352 61 43 15 321 317 327 310 319 303 308 322 4 321 333 307 247 252 264 262 266 248 222 215
33 24 26 26 23 15 12 8 1 358 357 356 352 348 346 342 348 356 356 16 9 357 38 325 291 263 277 292 323 341 341 348 354 7 4 311 310 263 273 277 292 303 299 295 277 265 318
36 37 30 22 16 14 10 3 358 358 357 355 353 348 343 340 348 3 14 55 112 227 320 328 253 249 274 263 287 344 8 347 331 322 341 349 259 275 324 316 295 292 281 279 278 275 246
38 34 27 13 17 9 3 1 359 356 356 354 350 348 348 338 343 27 15 106 260 87 258 307 299 325 341 343 320 337 355 316 296 309 325 201 266 297 308 304 295 292 260 290 285 299 283
39 25 20 21 15 5 3 359 358 355 354 353 350 348 348 340 37 330 334 343 2 143 63 4 1 349 352 320 354 323 311 282 323 286 304 288 286 310 303 297 296 276 262 259 273 285 252
45 21 15 5 4 4 2 358 359 352 351 353 350 348 344 19 268 343 289 324 304 68 49 323 346 306 325 326 301 314 323 333 270 288 81 273 292 297 292 283 298 272 292 276 252 253 262
56 27 11 354 13 5 1 0 354 353 351 352 349 346 348 355 338 248 333 333 58 46 338 338 330 330 337 325 333 301 332 11 269 283 299 293 291 272 251 288 279 298 297 252 241 250 245
62 28 6 21 13 7 5 357 356 351 351 352 347 344 7 0 318 324 336 51 40 66 343 334 325 327 319 332 326 322 326 317 237 331 328 313 313 305 239 319 299 301 325 263 203 221 239
69 30 26 22 14 10 1 2 357 350 349 352 344 358 331 312 324 338 49 54 62 331 314 309 318 316 324 346 324 311 317 302 276 185 308 338 323 335 315 309 295 303 209 253 238 198 213
50 54 37 23 15 2 7 359 354 351 348 353 345 344 359 340 341 24 65 52 137 283 291 315 314 316 303 326 332 333 275 244 238 163 330 309 303 318 299 357 297 339 231 265 264 248 261
86 68 42 18 15 11 3 359 357 351 347 357 36 356 328 331 345 42 58 90 192 256 298 304 323 336 300 316 330 332 310 248 288 190 166 267 301 302 331 332 307 306 293 344 261 263 217
110 86 38 29 11 13 9 5 358 355 349 4 42 41 287 338 51 40 84 236 284 267 322 303 289 288 271 296 307 283 263 294 302 325 231 295 215 295 321 328 304 343 333 320 270 261 267
124 77 39 27 15 16 13 7 2 3 355 50 43 43 317 18 46 33 32 328 289 275 288 280 259 204 230 316 296 299 281 296 297 323 310 253 281 309 310 315 180 351 285 255 230 290 269
142 74 40 30 19 26 15 10 4 6 19 63 73 280 327 62 63 342 317 296 255 300 316 307 286 255 255 306 315 279 310 306 323 319 284 286 278 315 331 345 230 335 336 344 242 273 278
146 106 26 31 23 34 18 12 4 12 14 77 63 18 330 45 83 127 359 290 314 301 282 286 278 285 320 300 237 282 303 317 323 303 340 357 274 226 272 279 302 341 358 8 13 346 22
154 157 9 29 17 27 18 12 7 19 21 83 34 293 169 309 326 346 170 255 298 336 303 295 295 310 321 295 308 275 317 335 316 302 332 67 278 300 307 300 302 13 353 22 27 15 39
170 173 45 15 15 21 18 11 6 24 60 78 100 48 342 271 298 348 304 276 288 311 239 289 276 313 306 225 222 302 314 321 270 310 313 346 285 317 300 301 329 31 1 13 28 22 18
184 203 99 2 2 15 8 2 359 25 81 116 259 341 174 269 197 81 228 318 293 309 289 236 298 312 300 281 300 289 286 247 244 292 311 302 314 317 300 322 318 355 7 353 22 34 11
189 181 199 309 10 1 355 356 355 0 126 119 176 212 295 275 197 283 294 299 279 304 266 289 306 246 274 313 303 302 285 260 209 254 226 305 317 295 290 314 51 145 10 357 353 37 12
194 194 224 291 359 340 350 352 344 338 330 148 148 176 193 275 229 295 275 268 316 296 274 268 285 253 316 311 360 349 343 356 326 312 341 347 305 311 330 320 273 323 352 345 336 357 13
194 210 234 328 334 326 340 337 327 320 336 100 170 140 167 253 260 250 269 202 261 298 327 278 312 311 342 341 41 42 322 298 322 322 338 331 355 20 328 343 21 357 333 330 249 176 359
194 220 247 278 299 315 322 320 318 316 331 125 204 167 104 186 258 131 207 211 183 334 266 302 327 340 5 357 20 28 307 257 344 323 337 344 348 11 353 351 69 355 345 334 43 317 327
199 222 229 267 303 308 308 313 309 317 321 126 240 170 137 182 269 207 221 173 17 326 173 275 11 348 352 27 44 274 127 273 5 295 335 65 345 344 352 11 360 13 352 36 303 307 319
204 223 238 258 295 303 305 306 311 318 315 125 165 349 93 157 239 243 238 237 203 222 240 345 196 255 267 35 284 258 282 31 150 293 11 13 138 228 307 270 342 327 266 356 332 318 318